DW7126 Lourinha PT current weather conditions

sailwx.info

Wind from 065 at 3 knots gusting 7

Air temperature 16.7° C
Dewpoint 15.0° C

Last reported at 2018-May-24 17:00 UTC.
Time now 2018-May-24 17:24 UTC

Location: N 39°14' W 009°18'.
View on Google Maps.

See reports from other nearby stations

  
Tides and Currents Weather Stations Pressure Air Temp Water Temp Dewpoint Dewpoint Depression Visibility Wind Speed Wind Dir Waves Ship Positions
date/time (UTC)wind fromknots sea level pressurealtimeterstation pressurevisibilityair tempwater tempwave heightnotes
2018-May-24 17:09 022 2 gusting 6 16.7
2018-May-24 17:00 065 3 gusting 7 16.7
2018-May-24 16:55 010 3 gusting 6 16.7
2018-May-24 16:52 024 2 gusting 8 16.1
2018-May-24 16:45 065 6 gusting 9 16.7
2018-May-24 16:40 051 6 gusting 9 16.7
2018-May-24 16:35 049 6 gusting 9 16.7
2018-May-24 16:34 022 6 gusting 9 16.1
2018-May-24 16:25 030 2 gusting 5 16.7
2018-May-24 16:20 327 3 gusting 5 16.7
2018-May-24 16:17 327 3 gusting 5 16.7
2018-May-24 16:10 315 3 gusting 5 16.7
2018-May-24 16:05 328 3 gusting 5 17.2
2018-May-24 16:00 322 3 gusting 4 17.2
2018-May-24 15:58 336 1 gusting 4 16.7
2018-May-24 15:50 271 2 gusting 3 17.2
2018-May-24 15:45 307 1 gusting 5 17.2
2018-May-24 15:41 284 3 gusting 5 16.7
2018-May-24 15:35 293 1 gusting 3 16.7
2018-May-24 15:30 266 0 gusting 3 16.7
2018-May-24 15:25 220 1 gusting 3 16.7
2018-May-24 15:23 221 1 gusting 3 16.1
2018-May-24 15:15 147 0 gusting 2 17.2
2018-May-24 15:10 146 0 gusting 2 17.2
2018-May-24 15:06 053 0 gusting 3 16.7
2018-May-24 15:00 053 16.7
2018-May-24 14:55 059 2 gusting 6 16.7
2018-May-24 14:50 069 4 gusting 6 16.7
2018-May-24 14:47 078 3 gusting 6 16.1
2018-May-24 14:40 101 3 gusting 6 16.7
2018-May-24 14:35 073 2 gusting 6 16.7
2018-May-24 14:30 057 3 gusting 6 16.1
2018-May-24 14:25 064 2 gusting 4 16.7
2018-May-24 14:20 055 2 gusting 6 16.1
2018-May-24 14:15 086 3 gusting 6 16.1
2018-May-24 14:12 078 3 gusting 6 15.6
2018-May-24 14:05 060 3 gusting 6 16.1
2018-May-24 14:00 065 2 gusting 4 16.1
2018-May-24 13:55 049 0 gusting 2 16.1
2018-May-24 13:54 049 0 gusting 2 15.6
2018-May-24 13:45 024 2 gusting 3 16.1
2018-May-24 13:40 025 1 gusting 4 16.1
2018-May-24 13:37 080 1 gusting 4 16.1
2018-May-24 13:30 100 2 gusting 3 16.1
2018-May-24 13:25 032 0 gusting 3 16.1
2018-May-24 13:20 046 1 gusting 4 16.1
2018-May-24 13:19 046 0 gusting 4 15.6
2018-May-24 13:10 035 2 gusting 6 15.6
2018-May-24 13:05 024 3 gusting 6 15.6
2018-May-24 13:01 009 3 gusting 5 15.6
2018-May-24 12:55 027 2 gusting 5 15.6
2018-May-24 12:50 016 2 gusting 6 15.6
2018-May-24 12:45 029 3 gusting 5 15.6
2018-May-24 12:44 018 2 gusting 5 15.6
2018-May-24 12:35 005 2 gusting 4 15.6
2018-May-24 12:30 005 2 gusting 5 15.6
2018-May-24 12:26 019 2 gusting 5 15.6
2018-May-24 12:20 021 1 gusting 5 15.6
2018-May-24 12:15 019 2 gusting 6 15.6
2018-May-24 12:10 012 2 gusting 6 15.6
2018-May-24 12:08 345 2 gusting 6 15.6
2018-May-24 12:00 340 2 gusting 6 15.6
2018-May-24 11:55 323 1 gusting 4 15.6
2018-May-24 11:51 342 0 gusting 5 15.6
2018-May-24 11:45 343 2 gusting 5 15.6
2018-May-24 11:40 323 2 gusting 4 15.6
2018-May-24 11:35 011 2 gusting 5 15.6
2018-May-24 11:33 344 1 gusting 5 15.6
2018-May-24 11:25 317 2 gusting 4 16.1
2018-May-24 11:20 315 2 gusting 4 15.6
2018-May-24 11:16 301 1 gusting 4 15.6
2018-May-24 11:10 315 2 gusting 4 15.6
2018-May-24 11:05 334 2 gusting 6 15.6
2018-May-24 11:00 325 5 gusting 6 15.6
2018-May-24 10:58 330 1 gusting 5 15.6
2018-May-24 10:50 302 3 gusting 5 15.6
2018-May-24 10:45 313 2 gusting 4 15.6
2018-May-24 10:40 335 2 gusting 3 16.1
2018-May-24 10:39 335 2 gusting 3 15.6
2018-May-24 10:30 274 16.1
2018-May-24 10:25 274 1 gusting 3 15.6
2018-May-24 10:22 279 0 gusting 2 15.6
2018-May-24 10:15 349 15.6
2018-May-24 10:10 349 1 gusting 2 15.6
2018-May-24 10:05 307 1 gusting 2 15.6
2018-May-24 10:04 304 0 gusting 2 15.6
2018-May-24 09:55 324 1 gusting 2 15.6
2018-May-24 09:50 276 0 gusting 4 15.6
2018-May-24 09:46 275 1 gusting 4 15.6
2018-May-24 09:40 269 1 gusting 3 15.6
2018-May-24 09:35 302 1 gusting 2 15.6
2018-May-24 09:30 059 15.6
2018-May-24 09:28 059 15.6
2018-May-24 09:20 059 1 gusting 4 15.6
2018-May-24 09:15 059 3 gusting 5 15.6
2018-May-24 09:10 051 3 gusting 5 15.0
2018-May-24 09:05 065 2 gusting 5 15.6
2018-May-24 09:00 054 1 gusting 2 15.6
2018-May-24 08:55 054 15.6
2018-May-24 08:53 054 1 gusting 4 15.0
2018-May-24 08:45 061 1 gusting 6 15.0
2018-May-24 08:40 098 2 gusting 6 15.0
2018-May-24 08:35 119 3 gusting 7 15.0
2018-May-24 08:34 116 3 gusting 7 15.0
2018-May-24 08:25 111 2 gusting 6 15.0
2018-May-24 08:20 130 2 gusting 6 15.6
2018-May-24 08:17 089 3 gusting 5 15.0
2018-May-24 08:10 126 2 gusting 6 15.6
2018-May-24 08:05 135 2 gusting 5 15.6
2018-May-24 08:00 128 3 gusting 5 15.6
2018-May-24 07:58 123 3 gusting 6 15.0
2018-May-24 07:50 180 3 gusting 6 15.6
2018-May-24 07:45 127 2 gusting 7 15.6
2018-May-24 07:41 137 1 gusting 8 15.6
2018-May-24 07:35 115 4 gusting 8 15.6
2018-May-24 07:30 141 5 gusting 7 15.6
2018-May-24 07:25 089 1 gusting 2 15.6
2018-May-24 07:23 067 1 gusting 2 15.0
2018-May-24 07:15 046 0 gusting 3 15.6
2018-May-24 07:10 042 1 gusting 4 15.6
2018-May-24 07:06 025 0 gusting 4 15.0
2018-May-24 07:00 013 2 gusting 5 15.6
2018-May-24 06:55 019 3 gusting 5 15.6
2018-May-24 06:50 033 2 gusting 5 15.6
2018-May-24 06:48 023 2 gusting 5 15.0
2018-May-24 06:40 032 2 gusting 5 15.6
2018-May-24 06:35 046 1 gusting 7 15.6
2018-May-24 06:31 055 3 gusting 7 15.0
2018-May-24 06:25 025 3 gusting 8 15.6
2018-May-24 06:20 054 2 gusting 8 15.6
2018-May-24 06:15 022 6 gusting 8 15.6
2018-May-24 06:13 044 4 gusting 8 15.0
2018-May-24 06:05 023 5 gusting 6 15.6
2018-May-24 06:00 005 3 gusting 7 15.6
2018-May-24 05:55 027 3 gusting 7 15.0
2018-May-24 05:50 031 4 gusting 6 15.6
2018-May-24 05:45 015 4 gusting 6 15.6
2018-May-24 05:40 020 3 gusting 7 15.6
2018-May-24 05:38 019 3 gusting 8 15.0
2018-May-24 05:30 030 5 gusting 8 15.6
2018-May-24 05:25 033 4 gusting 6 15.6
2018-May-24 05:21 016 4 gusting 6 15.0
2018-May-24 05:15 022 4 gusting 6 15.6
2018-May-24 05:10 026 4 gusting 5 15.6
2018-May-24 05:05 040 1 gusting 6 15.6
2018-May-24 05:03 026 2 gusting 6 15.0
2018-May-24 04:55 011 3 gusting 6 15.6
2018-May-24 04:50 036 1 gusting 5 15.6
2018-May-24 04:46 015 2 gusting 6 15.0
2018-May-24 04:40 011 4 gusting 6 15.6
2018-May-24 04:35 038 3 gusting 6 15.6
2018-May-24 04:30 032 3 gusting 10 15.6
2018-May-24 04:29 036 3 gusting 10 15.0
2018-May-24 04:20 032 4 gusting 9 15.6
2018-May-24 04:15 051 6 gusting 9 15.6
2018-May-24 04:11 022 5 gusting 7 15.0
2018-May-24 04:05 028 6 gusting 9 15.6
2018-May-24 04:00 020 4 gusting 6 15.6
2018-May-24 03:55 038 3 gusting 4 15.6
2018-May-24 03:54 037 2 gusting 5 15.0
2018-May-24 03:45 042 4 gusting 6 15.6
2018-May-24 03:40 053 3 gusting 6 15.6
2018-May-24 03:37 026 3 gusting 6 15.0
2018-May-24 03:30 042 3 gusting 7 15.6
2018-May-24 03:25 028 5 gusting 7 15.6
2018-May-24 03:20 046 2 gusting 5 15.6
2018-May-24 03:19 039 1 gusting 3 15.0
2018-May-24 03:10 032 15.6
2018-May-24 03:05 036 0 gusting 5 15.6
2018-May-24 03:02 019 2 gusting 5 15.0
2018-May-24 02:55 349 0 gusting 2 15.6
2018-May-24 02:50 017 1 gusting 3 15.6
2018-May-24 02:45 336 1 gusting 3 15.6
2018-May-24 02:35 028 15.6
2018-May-24 02:30 028 15.6
2018-May-24 02:27 028 15.0
2018-May-24 02:20 028 15.0
2018-May-24 02:15 028 15.0
2018-May-24 02:10 028 1 gusting 3 15.0
2018-May-24 02:09 015 0 gusting 2 15.0
2018-May-24 02:00 068 0 gusting 2 15.0
2018-May-24 01:55 068 1 gusting 2 15.0
2018-May-24 01:52 068 15.0
2018-May-24 01:45 023 0 gusting 1 15.0
2018-May-24 01:40 023 0 gusting 4 15.0
2018-May-24 01:35 022 2 gusting 4 15.0
2018-May-24 01:30 023 1 gusting 6 15.6
2018-May-24 01:25 026 3 gusting 6 15.6
2018-May-24 01:20 015 2 gusting 4 15.6
2018-May-24 01:18 011 1 gusting 4 15.0
2018-May-24 01:10 355 1 gusting 2 15.6
2018-May-24 01:05 355 0 gusting 2 15.6
2018-May-24 01:00 355 1 gusting 2 15.0
2018-May-24 00:59 355 0 gusting 2 15.0
2018-May-24 00:50 027 1 gusting 4 15.6
2018-May-24 00:45 026 3 gusting 4 15.6
2018-May-24 00:42 019 2 gusting 5 15.0
2018-May-24 00:35 021 3 gusting 5 15.6
2018-May-24 00:30 019 1 gusting 3 15.6
2018-May-24 00:25 018 2 gusting 3 15.6
2018-May-24 00:15 030 0 gusting 2 15.6
2018-May-24 00:10 030 1 gusting 3 15.6
2018-May-24 00:07 030 1 gusting 5 15.6
2018-May-24 00:00 014 3 gusting 5 15.6
2018-May-23 23:55 009 1 gusting 3 15.6
2018-May-23 23:50 023 1 gusting 2 15.6
2018-May-23 23:49 028 0 gusting 2 15.6
2018-May-23 23:40 029 1 gusting 2 15.6
2018-May-23 23:35 029 1 gusting 3 15.6
2018-May-23 23:32 029 0 gusting 3 15.0
2018-May-23 23:25 021 2 gusting 5 15.6
2018-May-23 23:20 026 2 gusting 5 15.6
2018-May-23 23:15 026 3 gusting 5 15.6
2018-May-23 23:05 032 2 gusting 5 16.1
2018-May-23 23:00 038 1 gusting 2 16.1
2018-May-23 22:57 039 0 gusting 2 15.6
2018-May-23 22:50 065 0 gusting 1 16.1
2018-May-23 22:45 065 0 gusting 1 16.1
2018-May-23 22:40 065 16.1
2018-May-23 22:39 065 15.6
2018-May-23 22:30 065 0 gusting 2 16.1
2018-May-23 22:25 065 0 gusting 1 16.1
2018-May-23 22:22 065 15.6
2018-May-23 22:15 065 1 gusting 2 16.1
2018-May-23 22:10 065 1 gusting 2 16.1
2018-May-23 22:05 084 0 gusting 2 16.1
2018-May-23 22:04 084 1 gusting 2 15.6
2018-May-23 21:55 048 0 gusting 2 16.1
2018-May-23 21:50 048 0 gusting 3 16.1
2018-May-23 21:47 048 1 gusting 3 16.1
2018-May-23 21:40 050 0 gusting 4 16.1
2018-May-23 21:35 051 2 gusting 6 16.1
2018-May-23 21:30 034 3 gusting 6 16.1
2018-May-23 21:29 035 2 gusting 6 16.1
2018-May-23 21:20 049 3 gusting 6 16.1
2018-May-23 21:15 019 4 gusting 6 16.1
2018-May-23 21:11 031 2 gusting 6 16.1
2018-May-23 21:05 048 3 gusting 6 16.1
2018-May-23 21:00 024 4 gusting 6 16.1
2018-May-23 20:55 032 4 gusting 6 16.1
2018-May-23 20:54 030 2 gusting 6 16.1
2018-May-23 20:45 009 5 gusting 8 16.7
2018-May-23 20:40 017 6 gusting 8 16.7
2018-May-23 20:37 026 4 gusting 9 16.1
2018-May-23 20:30 020 6 gusting 9 16.7
2018-May-23 20:25 013 5 gusting 7 16.7
2018-May-23 20:20 073 5 gusting 7 16.7
2018-May-23 20:19 041 5 gusting 7 16.1
2018-May-23 20:10 025 5 gusting 7 16.7
2018-May-23 20:05 011 5 gusting 6 16.7
2018-May-23 20:01 024 4 gusting 6 16.1
2018-May-23 19:55 027 4 gusting 7 16.7
2018-May-23 19:50 005 4 gusting 7 16.7
2018-May-23 19:45 338 2 gusting 8 16.7
2018-May-23 19:44 348 2 gusting 8 16.1
2018-May-23 19:35 332 1 gusting 8 16.7
2018-May-23 19:30 024 4 gusting 7 16.7
2018-May-23 19:27 342 4 gusting 6 16.1
2018-May-23 19:20 325 5 gusting 6 16.7
2018-May-23 19:15 335 5 gusting 7 16.7
2018-May-23 19:10 309 5 gusting 6 16.7
2018-May-23 19:09 311 4 gusting 6 16.1
2018-May-23 19:00 333 5 gusting 6 16.7
2018-May-23 18:55 304 4 gusting 6 17.2
2018-May-23 18:52 339 2 gusting 6 16.7
2018-May-23 18:45 342 5 gusting 8 17.2
2018-May-23 18:40 327 6 gusting 8 17.2
2018-May-23 18:35 329 4 gusting 7 17.2
2018-May-23 18:34 346 4 gusting 7 16.7
2018-May-23 18:25 324 4 gusting 6 17.2
2018-May-23 18:20 327 4 gusting 6 17.2
2018-May-23 18:17 277 3 gusting 6 16.7
2018-May-23 18:10 280 4 gusting 7 17.2
2018-May-23 18:05 293 4 gusting 7 17.2
2018-May-23 18:00 335 5 gusting 7 17.2
2018-May-23 17:58 339 4 gusting 7 16.7
2018-May-23 17:50 312 4 gusting 7 16.7
2018-May-23 17:45 283 4 gusting 7 16.7
2018-May-23 17:41 340 4 gusting 7 16.7
2018-May-23 17:35 342 5 gusting 8 17.2
2018-May-23 17:30 317 4 gusting 8 17.2
2018-May-23 17:25 331 6 gusting 7 16.7
2018-May-23 17:23 296 4 gusting 7 16.7
2018-May-23 17:15 294 3 gusting 6 16.7
2018-May-23 17:10 269 3 gusting 9 17.2
2018-May-23 17:05 323 4 gusting 9 16.7
2018-May-23 17:00 294 4 gusting 9 17.2
2018-May-23 16:55 273 5 gusting 8 17.2
2018-May-23 16:50 290 4 gusting 8 17.2
2018-May-23 16:47 273 3 gusting 8 16.7
2018-May-23 16:40 283 5 gusting 9 17.2
2018-May-23 16:35 267 4 gusting 8 17.2
2018-May-23 16:30 289 3 gusting 7 17.2
2018-May-23 16:29 294 3 gusting 6 17.2
2018-May-23 16:20 308 4 gusting 7 17.8
2018-May-23 16:15 275 4 gusting 7 17.8
2018-May-23 16:12 309 5 gusting 7 17.2
2018-May-23 16:05 270 4 gusting 13 17.8
2018-May-23 16:00 257 5 gusting 13 17.8
2018-May-23 15:55 246 6 gusting 11 18.3
2018-May-23 15:54 257 6 gusting 11 17.8
2018-May-23 15:45 315 6 gusting 9 18.3
2018-May-23 15:40 281 5 gusting 9 18.9
2018-May-23 15:37 355 5 gusting 10 18.9
2018-May-23 15:30 255 6 gusting 11 18.3
2018-May-23 15:25 255 6 gusting 9 17.8
2018-May-23 15:20 323 5 gusting 9 18.3
2018-May-23 15:19 277 6 gusting 10 17.8
2018-May-23 15:10 261 6 gusting 11 18.3
2018-May-23 15:05 244 5 gusting 10 17.8
2018-May-23 15:02 311 5 gusting 10 17.8
2018-May-23 14:55 302 6 gusting 13 17.2
2018-May-23 14:50 258 7 gusting 13 17.2
2018-May-23 14:45 260 8 gusting 13 17.2
2018-May-23 14:44 246 6 gusting 13 17.2
2018-May-23 14:35 223 9 gusting 13 17.8
2018-May-23 14:30 268 6 gusting 11 17.8
2018-May-23 14:27 284 6 gusting 12 17.2
2018-May-23 14:20 256 9 gusting 12 17.2
2018-May-23 14:15 286 7 gusting 13 17.8
2018-May-23 14:10 256 8 gusting 13 17.8
2018-May-23 14:09 296 7 gusting 12 17.8
2018-May-23 14:00 261 7 gusting 12 17.8
2018-May-23 13:55 290 7 gusting 12 17.2
2018-May-23 13:51 273 7 gusting 12 16.7
2018-May-23 13:45 242 6 gusting 12 17.2
2018-May-23 13:40 279 6 gusting 12 17.8
2018-May-23 13:35 261 6 gusting 13 17.8
2018-May-23 13:34 301 7 gusting 13 17.2
2018-May-23 13:25 254 6 gusting 12 17.8
2018-May-23 13:20 293 7 gusting 13 17.2
2018-May-23 13:17 264 8 gusting 13 17.2
2018-May-23 13:10 277 8 gusting 13 18.3
2018-May-23 13:05 252 7 gusting 12 18.3
2018-May-23 13:00 250 6 gusting 12 18.3
2018-May-23 12:58 246 7 gusting 12 18.3
2018-May-23 12:50 285 6 gusting 13 17.8
2018-May-23 12:45 261 6 gusting 14 17.8
2018-May-23 12:41 252 9 gusting 14 17.2
2018-May-23 12:35 280 6 gusting 12 17.2
2018-May-23 12:30 293 6 gusting 13 17.2
2018-May-23 12:25 261 9 gusting 13 16.7
2018-May-23 12:23 275 8 gusting 14 16.7
2018-May-23 12:15 299 10 gusting 15 17.2
2018-May-23 12:10 267 11 gusting 15 17.2
2018-May-23 12:05 267 9 gusting 16 17.2
2018-May-23 12:00 246 10 gusting 17 17.2
2018-May-23 11:55 262 12 gusting 17 17.2
2018-May-23 11:50 247 11 gusting 18 17.2
2018-May-23 11:48 303 13 gusting 18 17.2
2018-May-23 11:40 222 11 gusting 18 18.3
2018-May-23 11:35 244 11 gusting 16 18.3
2018-May-23 11:30 244 11 gusting 16 18.3
2018-May-23 11:25 226 9 gusting 13 18.3
2018-May-23 11:20 248 7 gusting 13 19.4
2018-May-23 11:15 267 7 gusting 15 18.9
2018-May-23 11:12 265 8 gusting 16 17.2
2018-May-23 11:05 254 13 gusting 16 18.3
2018-May-23 11:00 257 10 gusting 16 19.4
2018-May-23 10:55 250 13 gusting 16 20.0
2018-May-23 10:54 244 11 gusting 16 20.0
2018-May-23 10:45 227 3 gusting 6 20.6
2018-May-23 10:40 199 5 gusting 11 21.1
2018-May-23 10:37 172 4 gusting 11 20.6
2018-May-23 10:30 200 6 gusting 9 20.6
2018-May-23 10:25 190 6 gusting 9 20.6
2018-May-23 10:20 179 4 gusting 7 20.6
2018-May-23 10:19 175 3 gusting 7 20.6
2018-May-23 10:10 111 6 gusting 8 20.6
2018-May-23 10:05 145 4 gusting 7 20.6
2018-May-23 10:01 180 4 gusting 8 20.0
2018-May-23 09:55 182 5 gusting 6 20.6
2018-May-23 09:50 127 3 gusting 6 19.4
2018-May-23 09:45 219 2 gusting 9 20.0
2018-May-23 09:43 161 3 gusting 9 19.4
2018-May-23 09:35 192 3 gusting 6 19.4
2018-May-23 09:30 149 2 gusting 6 20.0
2018-May-23 09:25 154 2 gusting 6 19.4
2018-May-23 09:15 219 3 gusting 6 18.3
2018-May-23 09:10 202 4 gusting 6 18.9
2018-May-23 09:07 206 0 gusting 6 18.3
2018-May-23 09:00 210 4 gusting 8 18.3
2018-May-23 08:55 178 3 gusting 6 18.3
2018-May-23 08:50 193 0 gusting 6 18.3
2018-May-23 08:49 193 0 gusting 6 17.8
2018-May-23 08:40 220 2 gusting 6 17.8
2018-May-23 08:35 190 3 gusting 5 17.8
2018-May-23 08:32 123 0 gusting 5 17.8
2018-May-23 08:25 130 2 gusting 5 17.2
2018-May-23 08:20 173 3 gusting 5 17.2
2018-May-23 08:15 162 2 gusting 6 17.2
2018-May-23 08:14 157 1 gusting 6 17.2
2018-May-23 08:05 209 5 gusting 6 16.7
2018-May-23 08:00 180 2 gusting 6 16.7
2018-May-23 07:57 214 2 gusting 6 16.1
2018-May-23 07:50 177 1 gusting 4 16.1
2018-May-23 07:45 168 1 gusting 3 16.1
2018-May-23 07:40 205 1 gusting 3 15.6
2018-May-23 07:39 205 0 gusting 3 15.6
2018-May-23 07:30 136 1 gusting 4 15.6
2018-May-23 07:25 074 1 gusting 2 15.0
2018-May-23 07:22 074 15.0
2018-May-23 07:15 075 0 gusting 1 14.4
2018-May-23 07:10 074 13.9
2018-May-23 07:05 076 13.9
2018-May-23 07:04 076 13.3
2018-May-23 06:55 077 1 gusting 1 13.3
2018-May-23 06:50 092 0 gusting 1 13.3
2018-May-23 06:46 092 12.8
2018-May-23 06:40 092 0 gusting 1 12.8
2018-May-23 06:35 105 12.8
2018-May-23 06:30 103 12.2
2018-May-23 06:28 103 12.2
2018-May-23 06:20 138 12.8
2018-May-23 06:15 138 12.2
2018-May-23 06:11 138 11.7
2018-May-23 06:05 138 11.7
2018-May-23 06:00 134 0 gusting 2 11.1
2018-May-23 05:55 046 11.1
2018-May-23 05:53 046 10.6
2018-May-23 05:45 047 11.1
2018-May-23 05:40 047 11.1
2018-May-23 05:35 047 10.6
2018-May-23 05:30 047 11.1
2018-May-23 05:25 045 11.1
2018-May-23 05:20 047 11.1
2018-May-23 05:18 047 10.6
2018-May-23 05:10 046 11.1
2018-May-23 05:05 046 11.1
2018-May-23 05:00 046 11.1
2018-May-23 04:50 046 11.1
2018-May-23 04:45 046 11.1
2018-May-23 04:43 046 11.1
2018-May-23 04:35 046 11.7
2018-May-23 04:30 046 11.1
2018-May-23 04:26 046 2 gusting 3 11.1
2018-May-23 04:20 033 2 gusting 3 11.7
2018-May-23 04:15 134 0 gusting 1 12.2
2018-May-23 04:10 134 0 gusting 1 12.2
2018-May-23 04:08 134 11.7
2018-May-23 04:00 134 1 gusting 2 11.7
2018-May-23 03:55 075 11.7
2018-May-23 03:51 074 11.7
2018-May-23 03:45 074 12.2
2018-May-23 03:40 074 12.2
2018-May-23 03:35 074 12.2
2018-May-23 03:34 074 11.7
2018-May-23 03:25 074 12.2
2018-May-23 03:20 074 12.2
2018-May-23 03:17 074 11.7
2018-May-23 03:10 074 12.8
2018-May-23 03:05 074 12.8
2018-May-23 03:00 074 0 gusting 1 12.8
2018-May-23 02:59 074 0 gusting 2 12.2
2018-May-23 02:50 074 1 gusting 2 12.8
2018-May-23 02:45 074 12.8
2018-May-23 02:42 074 12.2
2018-May-23 02:35 074 12.8
2018-May-23 02:30 074 12.8
2018-May-23 02:25 074 12.8
2018-May-23 02:24 074 12.8
2018-May-23 02:15 074 1 gusting 1 12.8
2018-May-23 02:10 074 12.8
2018-May-23 02:07 074 12.2
2018-May-23 02:00 074 13.3
2018-May-23 01:55 083 0 gusting 2 13.3
2018-May-23 01:50 194 0 gusting 3 13.3
2018-May-23 01:49 194 0 gusting 3 13.3
2018-May-23 01:40 194 2 gusting 4 13.3
2018-May-23 01:35 194 3 gusting 4 13.3
2018-May-23 01:32 194 2 gusting 4 12.8
2018-May-23 01:25 195 3 gusting 4 12.2
2018-May-23 01:20 191 2 gusting 4 12.2
2018-May-23 01:15 191 3 gusting 4 12.8
2018-May-23 01:14 190 2 gusting 4 12.8
2018-May-23 01:05 190 0 gusting 1 13.9
2018-May-23 01:00 190 1 gusting 2 13.9
2018-May-23 00:57 190 0 gusting 2 13.3
2018-May-23 00:50 190 1 gusting 4 13.9
2018-May-23 00:45 190 2 gusting 4 13.3
2018-May-23 00:40 184 3 gusting 4 13.3
2018-May-23 00:39 183 2 gusting 4 12.8
2018-May-23 00:30 051 1 gusting 4 13.3
2018-May-23 00:25 052 1 gusting 5 13.9
2018-May-23 00:23 052 2 gusting 5 13.9
2018-May-23 00:15 059 3 gusting 4 13.9
2018-May-23 00:10 059 2 gusting 3 13.9
2018-May-23 00:05 059 0 gusting 1 13.9
2018-May-22 23:55 059 13.9
2018-May-22 23:50 059 13.9
2018-May-22 23:47 059 13.9
2018-May-22 23:40 059 0 gusting 3 13.9
2018-May-22 23:35 059 1 gusting 4 13.9
2018-May-22 23:30 054 2 gusting 4 13.9
2018-May-22 23:20 044 2 gusting 4 14.4
2018-May-22 23:15 059 1 gusting 4 14.4
2018-May-22 23:12 057 2 gusting 6 13.9
2018-May-22 23:05 063 3 gusting 6 14.4
2018-May-22 23:00 057 2 gusting 4 14.4
2018-May-22 22:55 060 2 gusting 4 14.4
2018-May-22 22:50 069 2 gusting 4 14.4
2018-May-22 22:45 058 2 gusting 4 14.4
2018-May-22 22:40 062 2 gusting 3 14.4
2018-May-22 22:38 054 0 gusting 5 13.9
2018-May-22 22:30 046 4 gusting 6 14.4
2018-May-22 22:25 059 5 gusting 6 14.4
2018-May-22 22:21 061 3 gusting 4 13.9
2018-May-22 22:15 052 2 gusting 4 13.9
2018-May-22 22:10 064 2 gusting 4 13.9
2018-May-22 22:05 057 1 gusting 3 14.4
2018-May-22 22:03 065 0 gusting 2 13.9
2018-May-22 21:55 065 1 gusting 4 14.4
2018-May-22 21:50 058 2 gusting 6 13.9
2018-May-22 21:46 061 3 gusting 6 13.9
2018-May-22 21:40 076 5 gusting 6 14.4
2018-May-22 21:35 077 4 gusting 6 14.4
2018-May-22 21:30 062 0 gusting 2 15.0
2018-May-22 21:28 228 14.4
2018-May-22 21:20 228 0 gusting 3 15.0
2018-May-22 21:15 228 1 gusting 3 15.0
2018-May-22 21:10 250 1 gusting 4 15.0
2018-May-22 21:09 250 1 gusting 4 14.4
2018-May-22 21:00 229 1 gusting 3 15.0
2018-May-22 20:55 229 1 gusting 3 15.0
2018-May-22 20:52 229 1 gusting 3 14.4
2018-May-22 20:45 214 2 gusting 3 15.0
2018-May-22 20:40 214 2 gusting 4 15.0
2018-May-22 20:35 221 3 gusting 5 15.0
2018-May-22 20:25 200 2 gusting 4 15.0
2018-May-22 20:20 216 2 gusting 5 15.0
2018-May-22 20:17 235 2 gusting 6 15.0
2018-May-22 20:10 246 5 gusting 7 15.0
2018-May-22 20:05 223 5 gusting 7 15.6
2018-May-22 20:00 236 4 gusting 6 15.6
2018-May-22 19:59 232 2 gusting 4 15.0
2018-May-22 19:50 255 3 gusting 6 15.6
2018-May-22 19:45 232 2 gusting 6 15.6
2018-May-22 19:42 234 3 gusting 6 15.6
2018-May-22 19:35 215 5 gusting 9 16.1
2018-May-22 19:30 232 6 gusting 10 16.1
2018-May-22 19:25 223 8 gusting 10 16.1
2018-May-22 19:24 227 8 gusting 12 16.1
2018-May-22 19:15 242 9 gusting 12 16.7
2018-May-22 19:10 242 9 gusting 11 16.7
2018-May-22 19:06 244 6 gusting 9 16.7
2018-May-22 19:00 248 6 gusting 9 16.7
2018-May-22 18:55 238 6 gusting 9 16.7
2018-May-22 18:50 249 7 gusting 10 16.7
2018-May-22 18:49 240 6 gusting 10 16.7
2018-May-22 18:40 252 7 gusting 13 16.7
2018-May-22 18:35 232 8 gusting 13 16.7
2018-May-22 18:31 239 9 gusting 13 16.7
2018-May-22 18:25 242 9 gusting 15 16.7
2018-May-22 18:20 231 13 gusting 15 16.7
2018-May-22 18:15 209 10 gusting 15 17.2
2018-May-22 18:13 224 10 gusting 15 16.7
2018-May-22 18:05 217 12 gusting 15 17.2
2018-May-22 18:00 224 9 gusting 17 17.2
2018-May-22 17:56 216 13 gusting 17 17.2
2018-May-22 17:50 232 10 gusting 13 17.2
2018-May-22 17:45 225 8 gusting 15 17.2
2018-May-22 17:40 227 12 gusting 15 17.2
2018-May-22 17:38 238 11 gusting 15 17.2
2018-May-22 17:30 237 8 gusting 13 17.8
2018-May-22 17:25 230 10 gusting 13 17.8
2018-May-22 17:20 237 8 gusting 14 17.8
2018-May-22 17:15 278 9 gusting 18 17.8
2018-May-22 17:10 207 12 gusting 18 17.8
2018-May-22 17:05 223 11 gusting 17 17.8
2018-May-22 17:02 250 13 gusting 17 17.8